User: anonymous   Login
Location: Champseau
(45.8333°N, 1.7667°E)
Time: 03:50:49
(UTC+00:00)
Language:

XW-2B - Orbit

View from above orbital plane
View from above orbital plane
View from above satellite
View from above satellite

Ground track
Ground track

The orbit data is extracted from the following two-line orbital elements,

1 40911U 15049N   21332.90568630  .00001772  00000-0  91555-4 0  9998
2 40911  97.4898 333.8101 0013102 341.0740  85.7425 15.17536958342423
Epoch (UTC): 28 November 2021 21:44:11
Eccentricity: 0.0013102
inclination: 97.4898°
perigee height: 504 km
apogee height: 522 km
right ascension of ascending node: 333.8101°
argument of perigee: 341.0740°
revolutions per day: 15.17536958
mean anomaly at epoch: 85.7425°
orbit number at epoch: 34242

The dashed part of the orbit path shows where the satellite is in the earth's shadow,  

DLR